Location: La Coruña
(43.3623°N, 8.4115°W)
Time: 01:13:49
(UTC+01:00)

STARLINK-1122 - Pass Details

Date: 22 January 2020
Orbit: 349 x 350 km, 53.0° (Epoch: 17 February)

Event Time Altitude Azimuth Distance (km) Brightness Sun altitude
Rises 20:11:55 0° 293° (WNW) 2,182 7.6 -18.1°
Reaches altitude 10° 20:14:41 10° 322° (NW) 1,340 6.0 -18.6°
Enters shadow 20:16:07 14° 351° (N) 1,156 5.3 -18.9°
